RASCOM-QAF 1            
1 32387U 07063A   19263.74461272 -.00000237  00000-0  00000+0 0  9995
2 32387   6.6649  57.8790 0008907  36.0390 340.5813  0.99069243 43088
HORIZONS 2              
1 32388U 07063B   19265.52290481 -.00000190  00000-0  00000+0 0  9994
2 32388   0.0174 146.3368 0002777  34.6391  93.2338  1.00272182 43219
ARIANE 5 R/B            
1 32389U 07063C   19265.50028639 -.00000001  00000-0  27114-3 0  9997
2 32389   5.9809 345.4241 7121967 253.5917  71.6605  2.30506254 99028
ARIANE 5 DEB [SYLDA]    
1 32390U 07063D   19264.50049274 -.00000036  00000-0  13682-2 0  9998
2 32390   5.9602  24.6667 7168987 176.6876 145.5369  2.26242711 96914